FW6799 Weather Reports


Display with metric or nautical units.
time (UTC)temp
F
wind
direction
speed
MPH
gust
MPH
rain 1hr
in
rain 24hr
in
rain mn
in
humidity
%
barometer
mb
20260505124611 71 147 9.0 13.0 0.00 0.00 0.00 24 1018.1
20260505123102 71 147 7.0 13.0 0.00 0.00 0.00 24 1018.2
20260505121621 71 124 5.0 12.0 0.00 0.00 0.00 24 1018.3
20260505120051 72 159 6.0 10.0 0.00 0.00 0.00 24 1018.2
20260505114548 72 153 4.0 9.0 0.00 0.00 0.00 23 1017.9
20260505113048 73 162 6.0 10.0 0.00 0.00 0.00 23 1017.9
20260505111556 73 128 4.0 9.0 0.00 0.00 0.00 23 1017.8
20260505101557 75 133 5.0 10.0 0.00 0.00 0.00 21 1017.2
20260505100132 75 125 4.0 10.0 0.00 0.00 0.00 20 1017.0
20260505094553 76 151 5.0 10.0 0.00 0.00 0.00 20 1016.9
20260505093054 77 95 7.0 11.0 0.00 0.00 0.00 19 1016.8
20260505091611 78 117 5.0 11.0 0.00 0.00 0.00 19 1016.7
20260505090059 78 125 9.0 15.0 0.00 0.00 0.00 19 1016.5
20260505084547 79 117 7.0 12.0 0.00 0.00 0.00 18 1016.6
20260505083051 79 120 7.0 15.0 0.00 0.00 0.00 18 1016.5
20260505081551 80 151 9.0 16.0 0.00 0.00 0.00 18 1016.4
20260505080054 81 131 7.0 14.0 0.00 0.00 0.00 17 1016.3
20260505074547 81 114 7.0 13.0 0.00 0.00 0.00 18 1016.3
20260505073058 81 144 8.0 15.0 0.00 0.00 0.00 17 1016.1
20260505071550 81 137 10.0 17.0 0.00 0.00 0.00 17 1016.2
20260505070049 82 140 8.0 16.0 0.00 0.00 0.00 18 1016.2
20260505064548 81 87 4.0 14.0 0.00 0.00 0.00 18 1016.0
20260505063052 82 81 7.0 13.0 0.00 0.00 0.00 17 1016.0
20260505061548 82 162 8.0 14.0 0.00 0.00 0.00 17 1016.3
20260505060049 82 131 8.0 14.0 0.00 0.00 0.00 17 1016.4
20260505054615 81 226 8.0 14.0 0.00 0.00 0.00 18 1016.8
20260505053053 81 74 10.0 21.0 0.00 0.00 0.00 18 1016.8
20260505051549 80 147 6.0 15.0 0.00 0.00 0.00 20 1016.8
20260505041601 79 151 6.0 16.0 0.00 0.00 0.00 21 1018.0
20260505040052 79 110 8.0 15.0 0.00 0.00 0.00 21 1018.3
20260505034551 79 95 11.0 19.0 0.00 0.00 0.00 21 1018.4
20260505033045 78 104 8.0 15.0 0.00 0.00 0.00 22 1018.4
20260505031550 78 120 12.0 21.0 0.00 0.00 0.00 22 1018.7
20260505024547 77 83 9.0 18.0 0.00 0.00 0.00 22 1019.4
20260505023048 77 70 10.0 19.0 0.00 0.00 0.00 23 1019.5
20260505021553 76 97 10.0 19.0 0.00 0.00 0.00 23 1019.6
20260505020058 75 105 11.0 20.0 0.00 0.00 0.00 25 1019.8
20260505014556 74 105 12.0 21.0 0.00 0.00 0.00 27 1019.9
20260505013050 73 99 13.0 19.0 0.00 0.00 0.00 28 1020.0
20260505011549 72 89 9.0 18.0 0.00 0.00 0.00 30 1020.1
20260505010106 71 129 10.0 17.0 0.00 0.00 0.00 31 1020.2
20260505004549 69 114 11.0 19.0 0.00 0.00 0.00 32 1020.2
20260505003131 69 106 9.0 23.0 0.00 0.00 0.00 33 1020.1
20260505001547 68 116 9.0 16.0 0.00 0.00 0.00 34 1019.8
20260505000154 66 136 5.0 14.0 0.00 0.00 0.00 36 1019.9
20260505000100 66 136 5.0 14.0 0.00 0.00 0.00 36 1019.9
20260504234551 64 156 7.0 14.0 0.00 0.00 0.00 38 1020.1
20260504233111 62 85 5.0 12.0 0.00 0.00 0.00 39 1020.0
20260504190511 61 95 6.0 12.0 0.00 0.00 0.00 36 1017.8
20260504190409 61 95 6.0 12.0 0.00 0.00 0.00 36 1017.8
20260504184641 62 140 8.0 15.0 0.00 0.00 0.00 35 1017.9
20260504183137 62 180 8.0 12.0 0.00 0.00 0.00 35 1018.0
20260504180154 62 136 5.0 12.0 0.00 0.00 0.00 34 1018.2
20260504180108 62 136 5.0 12.0 0.00 0.00 0.00 34 1018.2
20260504173336 62 131 4.0 9.0 0.00 0.00 0.00 33 1018.6
20260504171656 62 131 3.0 7.0 0.00 0.00 0.00 33 1018.5
20260504170150 62 135 3.0 7.0 0.00 0.00 0.00 32 1018.5